When you browse on this site, cookies collect data to enhance your experience and personalize the content and advertising you see.
Visit our Privacy Policy to learn more. By continuing to use the site, you agree to this use of cookies and data.
  • In Romania
  • List of Countries
  • For 7 days
  • Water Temperature
  • Weather Map
  • Weather Widgets
  • user-avatar
    Login

    Hourly Weather Gyor

    Today, 30 May, Saturday

    Time Temperature Precipitation Wind Pressure Humidity
    00:00 +8°C° 0 mm 4 mps 755 mmHg 79%
    01:00 +9°C° 0 mm 3 mps 755 mmHg 88%
    02:00 +8°C° 0 mm 3 mps 754 mmHg 87%
    03:00 +8°C° 0 mm 3 mps 754 mmHg 87%
    04:00 +8°C° 0 mm 3 mps 754 mmHg 87%
    05:00 +8°C° 0 mm 4 mps 754 mmHg 80%
    06:00 +10°C° 0 mm 5 mps 754 mmHg 73%
    07:00 +11°C° 0 mm 6 mps 754 mmHg 66%
    08:00 +14°C° 0 mm 6 mps 753 mmHg 61%
    09:00 +15°C° 0 mm 6 mps 753 mmHg 56%
    10:00 +16°C° 0 mm 6 mps 753 mmHg 50%
    11:00 +16°C° 0 mm 6 mps 752 mmHg 50%
    12:00 +17°C° 0 mm 6 mps 752 mmHg 49%
    13:00 +17°C° 0 mm 6 mps 752 mmHg 49%
    14:00 +17°C° 0.2 mm 6 mps 752 mmHg 51%
    15:00 +17°C° 0.2 mm 6 mps 751 mmHg 54%
    16:00 +17°C° 0.2 mm 6 mps 751 mmHg 56%
    17:00 +16°C° 0.1 mm 6 mps 751 mmHg 61%
    18:00 +15°C° 0.1 mm 5 mps 751 mmHg 66%
    19:00 +14°C° 0.1 mm 5 mps 751 mmHg 71%
    20:00 +13°C° 0 mm 5 mps 751 mmHg 73%
    21:00 +12°C° 0 mm 5 mps 751 mmHg 76%
    22:00 +10°C° 0 mm 5 mps 751 mmHg 78%
    23:00 +9°C° 0 mm 5 mps 751 mmHg 79%

    Tomorrow, 31 May, Sunday

    Time Temperature Precipitation Wind Pressure Humidity
    00:00 +9°C° 0 mm 5 mps 751 mmHg 80%
    01:00 +9°C° 0 mm 5 mps 751 mmHg 81%
    02:00 +9°C° 0 mm 5 mps 751 mmHg 80%
    03:00 +9°C° 0 mm 5 mps 751 mmHg 79%
    04:00 +9°C° 0 mm 5 mps 750 mmHg 77%
    05:00 +9°C° 0 mm 6 mps 750 mmHg 75%
    06:00 +10°C° 0 mm 7 mps 750 mmHg 72%
    07:00 +11°C° 0 mm 7 mps 750 mmHg 69%
    08:00 +10°C° 0.2 mm 8 mps 750 mmHg 74%
    09:00 +10°C° 0.2 mm 8 mps 750 mmHg 79%
    10:00 +10°C° 0.2 mm 9 mps 750 mmHg 83%
    11:00 +10°C° 0 mm 9 mps 750 mmHg 80%
    12:00 +11°C° 0 mm 10 mps 750 mmHg 77%
    13:00 +12°C° 0 mm 10 mps 750 mmHg 74%
    14:00 +11°C° 0 mm 10 mps 750 mmHg 75%
    15:00 +11°C° 0 mm 10 mps 750 mmHg 76%
    16:00 +11°C° 0 mm 9 mps 750 mmHg 78%
    17:00 +10°C° 0.1 mm 9 mps 750 mmHg 81%
    18:00 +10°C° 0.1 mm 8 mps 750 mmHg 85%
    19:00 +9°C° 0.1 mm 8 mps 750 mmHg 89%
    20:00 +10°C° 0.1 mm 7 mps 750 mmHg 89%
    21:00 +10°C° 0.1 mm 7 mps 750 mmHg 89%
    22:00 +10°C° 0.1 mm 7 mps 750 mmHg 90%
    23:00 +11°C° 0 mm 6 mps 750 mmHg 89%

    Day after tomorrow, 1 June, Monday

    Time Temperature Precipitation Wind Pressure Humidity
    00:00 +11°C° 0 mm 6 mps 750 mmHg 89%
    01:00 +11°C° 0 mm 6 mps 750 mmHg 89%
    02:00 +12°C° 0 mm 5 mps 750 mmHg 90%
    03:00 +12°C° 0 mm 5 mps 750 mmHg 91%
    04:00 +12°C° 0 mm 5 mps 750 mmHg 91%
    05:00 +11°C° 0 mm 6 mps 750 mmHg 87%
    06:00 +13°C° 0 mm 6 mps 751 mmHg 83%
    07:00 +14°C° 0 mm 7 mps 751 mmHg 78%
    08:00 +16°C° 0 mm 7 mps 751 mmHg 70%
    09:00 +18°C° 0 mm 7 mps 752 mmHg 62%
    10:00 +20°C° 0 mm 7 mps 752 mmHg 54%
    11:00 +21°C° 0 mm 7 mps 752 mmHg 52%
    12:00 +21°C° 0 mm 8 mps 752 mmHg 50%
    13:00 +22°C° 0 mm 8 mps 752 mmHg 49%
    14:00 +21°C° 0 mm 8 mps 752 mmHg 49%
    15:00 +21°C° 0 mm 7 mps 752 mmHg 50%
    16:00 +21°C° 0 mm 7 mps 752 mmHg 50%
    17:00 +20°C° 0 mm 7 mps 752 mmHg 55%
    18:00 +17°C° 0 mm 6 mps 752 mmHg 60%
    19:00 +16°C° 0 mm 6 mps 752 mmHg 64%
    20:00 +15°C° 0 mm 5 mps 752 mmHg 65%
    21:00 +13°C° 0 mm 5 mps 753 mmHg 66%
    22:00 +12°C° 0 mm 4 mps 753 mmHg 67%
    23:00 +11°C° 0 mm 4 mps 753 mmHg 70%

    2 June, Tuesday

    Time Temperature Precipitation Wind Pressure Humidity
    00:00 +11°C° 0 mm 3 mps 753 mmHg 72%
    01:00 +10°C° 0 mm 3 mps 753 mmHg 74%
    02:00 +9°C° 0 mm 3 mps 753 mmHg 76%
    03:00 +9°C° 0 mm 3 mps 753 mmHg 78%
    04:00 +8°C° 0 mm 3 mps 753 mmHg 80%
    05:00 +10°C° 0 mm 3 mps 753 mmHg 75%
    06:00 +11°C° 0 mm 4 mps 753 mmHg 70%
    07:00 +12°C° 0 mm 4 mps 753 mmHg 65%
    08:00 +13°C° 0 mm 4 mps 753 mmHg 60%
    09:00 +15°C° 0 mm 5 mps 753 mmHg 55%
    10:00 +16°C° 0 mm 5 mps 753 mmHg 51%
    11:00 +17°C° 0 mm 5 mps 753 mmHg 49%
    12:00 +17°C° 0 mm 5 mps 752 mmHg 47%
    13:00 +19°C° 0 mm 4 mps 752 mmHg 46%
    14:00 +19°C° 0 mm 4 mps 751 mmHg 46%
    15:00 +19°C° 0 mm 5 mps 751 mmHg 46%
    16:00 +19°C° 0 mm 5 mps 751 mmHg 46%
    17:00 +18°C° 0 mm 4 mps 750 mmHg 52%
    18:00 +17°C° 0 mm 3 mps 750 mmHg 58%
    19:00 +15°C° 0 mm 2 mps 750 mmHg 64%
    20:00 +13°C° 0 mm 3 mps 750 mmHg 68%
    21:00 +11°C° 0 mm 3 mps 750 mmHg 71%
    22:00 +10°C° 0 mm 3 mps 750 mmHg 74%
    23:00 +9°C° 0 mm 2 mps 750 mmHg 76%

    3 June, Wednesday

    Time Temperature Precipitation Wind Pressure Humidity
    00:00 +9°C° 0 mm 2 mps 749 mmHg 77%
    01:00 +9°C° 0 mm 1 mps 749 mmHg 78%
    02:00 +9°C° 0 mm 1 mps 748 mmHg 80%
    03:00 +8°C° 0 mm 1 mps 748 mmHg 82%
    04:00 +8°C° 0 mm 1 mps 748 mmHg 84%
    05:00 +9°C° 0 mm 2 mps 748 mmHg 79%
    06:00 +10°C° 0 mm 2 mps 748 mmHg 75%
    07:00 +13°C° 0 mm 2 mps 747 mmHg 70%
    08:00 +14°C° 0 mm 3 mps 747 mmHg 62%
    09:00 +16°C° 0 mm 3 mps 747 mmHg 55%
    10:00 +18°C° 0 mm 3 mps 747 mmHg 48%
    11:00 +19°C° 0 mm 3 mps 747 mmHg 46%
    12:00 +20°C° 0 mm 3 mps 747 mmHg 44%
    13:00 +20°C° 0 mm 3 mps 746 mmHg 42%
    14:00 +20°C° 0 mm 3 mps 746 mmHg 43%
    15:00 +20°C° 0 mm 3 mps 746 mmHg 44%
    16:00 +20°C° 0 mm 3 mps 745 mmHg 45%
    17:00 +19°C° 0 mm 3 mps 745 mmHg 51%
    18:00 +18°C° 0 mm 2 mps 745 mmHg 58%
    19:00 +16°C° 0 mm 2 mps 745 mmHg 64%
    20:00 +15°C° 0 mm 1 mps 746 mmHg 68%
    21:00 +14°C° 0 mm 1 mps 746 mmHg 72%
    22:00 +12°C° 0 mm 1 mps 747 mmHg 76%
    23:00 +12°C° 0 mm 1 mps 746 mmHg 78%

    4 June, Thursday

    Time Temperature Precipitation Wind Pressure Humidity
    00:00 +11°C° 0 mm 1 mps 746 mmHg 80%
    01:00 +11°C° 0 mm 1 mps 746 mmHg 83%
    02:00 +10°C° 0 mm 1 mps 746 mmHg 84%
    03:00 +10°C° 0 mm 1 mps 746 mmHg 86%
    04:00 +9°C° 0 mm 1 mps 746 mmHg 88%
    05:00 +11°C° 0 mm 1 mps 746 mmHg 81%
    06:00 +13°C° 0 mm 2 mps 746 mmHg 75%
    07:00 +15°C° 0 mm 2 mps 747 mmHg 68%
    08:00 +17°C° 0 mm 2 mps 747 mmHg 62%
    09:00 +18°C° 0 mm 2 mps 747 mmHg 55%
    10:00 +20°C° 0 mm 3 mps 747 mmHg 49%
    11:00 +20°C° 0 mm 3 mps 747 mmHg 47%
    12:00 +21°C° 0 mm 3 mps 747 mmHg 45%
    13:00 +21°C° 0 mm 3 mps 746 mmHg 44%
    14:00 +21°C° 0 mm 3 mps 746 mmHg 44%
    15:00 +21°C° 0 mm 3 mps 746 mmHg 44%
    16:00 +22°C° 0 mm 3 mps 746 mmHg 45%
    17:00 +20°C° 0 mm 3 mps 746 mmHg 51%
    18:00 +19°C° 0 mm 2 mps 746 mmHg 58%
    19:00 +18°C° 0 mm 1 mps 746 mmHg 64%
    20:00 +16°C° 0 mm 1 mps 746 mmHg 67%
    21:00 +15°C° 0 mm 1 mps 747 mmHg 71%
    22:00 +12°C° 0 mm 0 mps 747 mmHg 74%
    23:00 +13°C° 0 mm 1 mps 747 mmHg 74%
    Show more